GW4545 Weather Reports


time (UTC)temp
F
wind
direction
speed
knots
gust
knots
rain 1hr
in
rain 24hr
in
rain mn
in
humidity
%
barometer
mb
20260902064552 55 0 0.9 2.6 0.00 0.01 0.01 92 1011.9
20260902063057 55 0 0.0 2.6 0.00 0.01 0.01 91 1011.8
20260902061554 55 0 0.0 1.7 0.00 0.01 0.01 91 1011.9
20260902060104 55 283 0.0 2.6 0.00 0.01 0.01 91 1012.0
20260902054559 55 0 0.0 2.6 0.00 0.01 0.01 90 1012.0
20260902053102 56 0 0.0 1.7 0.00 0.01 0.01 89 1012.2
20260902051556 57 263 0.9 1.7 0.00 0.01 0.01 89 1012.3
20260902050049 57 0 0.0 2.6 0.00 0.01 0.01 88 1012.2
20260902044555 58 0 0.0 1.7 0.00 0.01 0.01 88 1012.4
20260902043056 58 0 0.0 1.7 0.00 0.01 0.01 87 1012.6
20260902041600 58 209 0.0 2.6 0.00 0.01 0.01 87 1012.4
20260902040105 58 315 0.9 2.6 0.00 0.01 0.01 87 1012.4
20260902034605 58 271 0.9 2.6 0.00 0.01 0.01 87 1012.4
20260902033100 59 269 0.9 2.6 0.00 0.01 0.01 85 1012.3
20260902031552 59 228 0.9 2.6 0.00 0.01 0.01 85 1012.5
20260902030057 61 0 0.0 2.6 0.00 0.01 0.01 83 1012.4
20260902024553 63 95 0.0 1.7 0.00 0.01 0.01 78 1012.3
20260902023050 64 163 0.0 0.9 0.00 0.01 0.01 73 1012.1
20260902021546 64 0 0.0 3.5 0.00 0.01 0.01 73 1012.1
20260902020100 63 232 0.9 6.1 0.00 0.01 0.01 75 1012.1
20260902014550 63 259 3.5 7.8 0.00 0.01 0.01 75 1012.1
20260902013057 64 251 2.6 6.1 0.00 0.01 0.01 76 1012.0
20260902011556 65 295 0.9 2.6 0.00 0.01 0.01 75 1011.9
20260902010055 65 0 0.9 3.5 0.00 0.01 0.01 75 1011.9
20260902004600 64 333 0.9 2.6 0.00 0.01 0.01 81 1011.9
20260902003057 63 352 0.0 1.7 0.00 0.01 0.01 83 1011.9
20260902001558 63 339 0.9 2.6 0.00 0.01 0.01 85 1011.9
20260902000050 63 312 0.9 2.6 0.00 0.01 0.01 85 1012.0
20260901234558 62 0 0.0 1.7 0.00 0.01 0.01 87 1012.1
20260901233101 62 0 0.0 2.6 0.00 0.01 0.01 89 1012.0
20260901231551 62 129 1.7 2.6 0.01 0.01 0.01 89 1012.1
20260901230059 62 303 0.0 3.5 0.01 0.01 0.01 88 1012.5
20260901224555 62 352 0.9 2.6 0.01 0.01 0.01 88 1012.4
20260901223059 62 360 0.9 2.6 0.01 0.01 0.01 87 1012.4
20260901221547 64 273 2.6 7.8 0.00 0.00 0.00 81 1012.4
20260901220113 65 238 2.6 7.8 0.00 0.00 0.00 72 1012.2
20260901214552 65 0 0.9 4.3 0.00 0.00 0.00 74 1012.1
20260901213104 64 176 0.0 6.1 0.00 0.00 0.00 76 1012.1
20260901211554 64 149 1.7 7.0 0.00 0.00 0.00 75 1012.1
20260901210050 64 0 0.9 4.3 0.00 0.00 0.00 75 1012.2
20260901204558 65 54 0.9 3.5 0.00 0.00 0.00 72 1012.2
20260901203055 65 0 0.9 3.5 0.00 0.00 0.00 72 1012.1
20260901201557 65 203 1.7 5.2 0.00 0.00 0.00 70 1012.2
20260901194604 65 76 0.9 5.2 0.00 0.00 0.00 73 1012.3
20260901193102 64 0 0.0 5.2 0.00 0.00 0.00 74 1012.4
20260901191548 64 215 0.9 2.6 0.00 0.00 0.00 74 1012.5
20260901190053 64 97 0.9 2.6 0.00 0.00 0.00 75 1012.8
20260901184557 63 87 0.0 5.2 0.00 0.00 0.00 75 1012.9
20260901183048 63 115 1.7 6.1 0.00 0.00 0.00 75 1012.9
20260901181556 63 0 0.9 7.0 0.00 0.00 0.00 74 1012.9
20260901180055 63 82 1.7 5.2 0.00 0.00 0.00 76 1012.9
20260901174552 63 87 1.7 7.8 0.00 0.00 0.00 76 1012.8
20260901173057 63 107 0.9 8.7 0.00 0.00 0.00 77 1012.8
20260901171557 62 273 0.9 5.2 0.00 0.00 0.00 77 1012.8
20260901170115 62 0 0.9 3.5 0.00 0.00 0.00 80 1012.6
20260901164552 60 0 0.0 2.6 0.00 0.00 0.00 84 1012.8
20260901163056 60 0 0.9 2.6 0.00 0.00 0.00 85 1012.9
20260901161558 59 27 0.0 2.6 0.00 0.00 0.00 86 1012.7
20260901154552 58 82 0.0 0.9 0.00 0.00 0.00 87 1012.8
20260901153051 58 0 0.0 2.6 0.00 0.00 0.00 88 1012.9
20260901151554 57 95 0.9 2.6 0.00 0.00 0.00 88 1012.9
20260901150107 57 96 0.9 2.6 0.00 0.00 0.00 88 1012.8
20260901144550 57 188 0.0 1.7 0.00 0.00 0.00 88 1012.7
20260901143059 56 0 0.0 0.0 0.00 0.00 0.00 89 1012.6
20260901141554 56 0 0.0 0.0 0.00 0.00 0.00 89 1012.4
20260901140058 56 0 0.0 0.0 0.00 0.00 0.00 89 1012.3
20260901134553 55 0 0.0 0.0 0.00 0.00 0.00 90 1012.3
20260901133048 55 0 0.0 0.0 0.00 0.00 0.00 90 1012.2
20260901131552 55 0 0.0 0.0 0.00 0.00 0.00 90 1012.1
20260901130054 55 0 0.0 0.0 0.00 0.00 0.00 90 1012.1
20260901124550 54 0 0.0 0.0 0.00 0.00 0.00 91 1012.2
20260901123057 54 0 0.0 0.9 0.00 0.00 0.00 91 1012.2
20260901121604 54 0 0.0 0.0 0.00 0.00 0.00 91 1012.1
20260901120056 54 0 0.0 0.0 0.00 0.00 0.00 91 1011.9
20260901114547 53 0 0.0 0.0 0.00 0.00 0.00 91 1012.0
20260901113100 53 188 0.0 1.7 0.00 0.00 0.00 91 1012.0
20260901111550 53 0 0.0 0.0 0.00 0.00 0.00 91 1011.8
20260901110105 53 0 0.0 0.9 0.00 0.00 0.00 88 1011.8
20260901104559 54 188 0.0 2.6 0.00 0.00 0.00 89 1011.6
20260901103053 54 171 0.0 3.5 0.00 0.00 0.00 89 1011.5
20260901101550 55 174 1.7 2.6 0.00 0.00 0.00 86 1011.6
20260901094553 56 0 0.9 3.5 0.00 0.00 0.00 87 1011.3
20260901093054 56 0 0.0 1.7 0.00 0.00 0.00 87 1011.2
20260901091550 56 0 0.0 0.0 0.00 0.00 0.00 86 1011.2
20260901090100 56 140 0.0 1.7 0.00 0.00 0.00 86 1011.3
20260901084559 56 0 0.0 1.7 0.00 0.00 0.00 87 1011.3
20260901083050 56 0 0.0 1.7 0.00 0.00 0.00 86 1011.3
20260901081552 56 0 0.0 0.0 0.00 0.00 0.00 85 1011.1
20260901080059 56 0 0.0 0.0 0.00 0.00 0.00 85 1011.0
20260901074558 57 140 0.9 1.7 0.00 0.00 0.00 84 1010.9
20260901073052 58 0 0.0 1.7 0.00 0.00 0.00 82 1010.7
20260901071550 58 140 0.9 2.6 0.00 0.00 0.00 82 1010.5
20260901070059 59 28 0.0 0.9 0.00 0.00 0.00 79 1010.3